• MPC Preparation (Info)

  • MPEC 2016-F22 : 2016 EF195

    The following Minor Planet Electronic Circular may be linked-to from your own Web pages, but must not otherwise be redistributed electronically.

    A form allowing access to any MPEC is at the bottom of this page.


    Read MPEC 2016-F21 Read MPEC 2016-F23


    M.P.E.C. 2016-F22                                Issued 2016 Mar. 17, 16:36 UT
    
         The Minor Planet Electronic Circulars contain information on unusual
             minor planets and routine data on comets.  They are published
        on behalf of Division F of the International Astronomical Union by the
              Minor Planet Center, Smithsonian Astrophysical Observatory,
                              Cambridge, MA 02138, U.S.A.
    
                 Prepared using the Tamkin Foundation Computer Network
    
                                  MPC@CFA.HARVARD.EDU
                URL https://www.minorplanetcenter.net/    ISSN 1523-6714
    
                                      2016 EF195
    
    Observations:
         K16EJ5F* C2016 03 15.56284 15 18 03.259-13 16 07.08         19.1 wLEF022F51
         K16EJ5F  C2016 03 15.57724 15 18 00.345-13 16 07.86         19.1 wLEF022F51
         K16EJ5F  C2016 03 15.59164 15 17 57.441-13 16 07.96         19.2 wLEF022F51
         K16EJ5F  C2016 03 15.60602 15 17 54.542-13 16 07.31         19.2 wLEF022F51
         K16EJ5F HC2016 03 16.37648 15 17 38.05 -13 16 37.9                oEF022691
         K16EJ5F HC2016 03 16.37848 15 17 37.80 -13 16 38.0                oEF022691
         K16EJ5F HC2016 03 16.38049 15 17 37.53 -13 16 38.5                oEF022691
         K16EJ5F  C2016 03 16.38079 15 17 37.28 -13 16 36.1          19.7 RuEF022926
         K16EJ5F  C2016 03 16.39081 15 17 35.84 -13 16 38.3          19.4 RuEF022926
         K16EJ5F  C2016 03 16.40083 15 17 34.34 -13 16 39.9          19.8 RuEF022926
         K16EJ5F  C2016 03 16.41986 15 17 31.40 -13 16 45.2          19.4 VqEF022G96
         K16EJ5F  C2016 03 16.42205 15 17 31.07 -13 16 45.2          19.3 VqEF022G96
         K16EJ5F  C2016 03 16.42424 15 17 30.74 -13 16 45.4          19.4 VqEF022G96
         K16EJ5F  C2016 03 16.42643 15 17 30.40 -13 16 45.4          19.3 VqEF022G96
         K16EJ5F  C2016 03 16.42788 15 17 30.22 -13 16 41.5          19.8 RuEF022926
         K16EJ5F  C2016 03 16.43795 15 17 28.66 -13 16 42.4          20.0 RuEF022926
         K16EJ5F  C2016 03 16.44795 15 17 27.14 -13 16 41.8          19.8 RuEF022926
         K16EJ5F  C2016 03 16.50250 15 17 18.73 -13 16 38.9          19.7 RuEF022926
         K16EJ5F  C2016 03 16.51234 15 17 17.38 -13 16 36.8          20.0 RuEF022926
         K16EJ5F  C2016 03 16.52236 15 17 15.86 -13 16 35.2          19.8 RuEF022926
         K16EJ5F _C2016 03 16.58429215 17 21.068-13 15 47.94         19.1 RtEF022568
         K16EJ5F _C2016 03 16.58625915 17 20.738-13 15 47.90         19.1 RtEF022568
         K16EJ5F _C2016 03 16.58729515 17 20.569-13 15 47.87         19.1 RtEF022568
         K16EJ5F _C2016 03 16.63572515 17 12.841-13 15 43.12         19.0 RtEF022568
         K16EJ5F _C2016 03 16.63676315 17 12.683-13 15 42.96         19.1 RtEF022568
         K16EJ5F _C2016 03 16.63779915 17 12.523-13 15 42.79         19.2 RtEF022568
         K16EJ5F IC2016 03 16.97652715 17 20.42 -13 11 03.9          19.2 RqEF022K92
         K16EJ5F  C2016 03 16.97811815 17 20.23 -13 11 04.5          19.2 RqEF022K92
         K16EJ5F  C2016 03 16.97971015 17 20.06 -13 11 04.8          19.5 RqEF022K92
         K16EJ5F  C2016 03 16.98130215 17 19.88 -13 11 05.3          19.6 RqEF022K92
         K16EJ5F  C2016 03 16.98289415 17 19.69 -13 11 06.0          19.4 RqEF022K92
         K16EJ5F  C2016 03 16.98448515 17 19.51 -13 11 06.1          19.4 RqEF022K92
         K16EJ5F  C2016 03 16.98607615 17 19.32 -13 11 06.7          19.5 RqEF022K92
         K16EJ5F |C2016 03 17.19693 15 17 16.11 -13 11 10.4          19.4 VuEF022807
         K16EJ5F |C2016 03 17.20092 15 17 15.71 -13 11 11.6          19.7 VuEF022807
         K16EJ5F |C2016 03 17.20474 15 17 15.34 -13 11 12.8          19.6 VuEF022807
         K16EJ5F HC2016 03 17.37803 15 17 05.06 -13 16 08.4          19.9 RoEF022291
         K16EJ5F HC2016 03 17.37983 15 17 04.84 -13 16 08.7          19.8 RoEF022291
         K16EJ5F HC2016 03 17.38162 15 17 04.63 -13 16 08.9          19.8 RoEF022291
    
    Observer details:
    291 LPL/Spacewatch II.  Observer M. T. Read.  1.8-m f/2.7 reflector + CCD.
    568 Mauna Kea.  Observers R. J. Wainscoat, L. Wells.  Measurers M. Micheli,
        R. J. Wainscoat.  3.6-m Canada-France-Hawaii Telescope + CCD.
    691 Steward Observatory, Kitt Peak.  Observer A. F. Tubbiolo.  0.9-m f/3
        reflector + CCD.
    807 Cerro Tololo.  Observers T. Linder, R. Holmes.  0.61-m f/6.5 astrograph
        + CCD.
    926 Tenagra II Observatory.  Observers M. Schwartz, P. R. Holvorcem.  Measurer
        M. Schwartz.  0.41-m f/3.75 astrograph + CCD, 0.81-m f/7 Ritchey-Chretien
        + CCD.
    F51 Pan-STARRS 1, Haleakala.  Observers B. Gibson, T. Goggia, N. Primak,
        A. Schultz, M. Willman.  Measurers K. Chambers, S. Chastel, L. Denneau,
        H. Flewelling, M. Huber, E. Lilly, E. Magnier, R. Wainscoat, C. Waters,
        R. Weryk.  1.8-m Ritchey-Chretien + CCD.
    G96 Mt. Lemmon Survey.  Observer G. J. Leonard.  Measurers E. J. Christensen,
        D. C. Fuls, A. R. Gibbs, A. D. Grauer, J. A. Johnson, R. A. Kowalski,
        S. M. Larson, G. J. Leonard, R. G. Matheny, R. L. Seaman, F. C. Shelly.
        1.5-m reflector + CCD.
    K92 Sutherland-LCOGT B.  Observers T. Lister, S. Greenstreet, E. Gomez.
        Measurer T. Lister.  1.0-m f/8 Ritchey-Chretien + CCD.
    
    Orbital elements:
    2016 EF195                                               Earth MOID = 0.0002 AU
    Epoch 2016 Jan. 13.0 TT = JDT 2457400.5                 MPC
    M 346.32593              (2000.0)            P               Q
    n   0.28970441     Peri.  346.31051     -0.92051197     -0.39068295
    a   2.2620350      Node   170.68791     +0.36129423     -0.85595808
    e   0.5655175      Incl.    1.75465     +0.14874203     -0.33867773
    P   3.40           H   25.4           G   0.15           U   5
    Residuals in seconds of arc
    160315 F51  0.0   0.1+    160316 G96  0.1-  0.3+    160316 K92  0.2-  0.0
    160315 F51  0.0   0.1+    160316 926  0.6-  0.2+    160316 K92  0.3-  0.1-
    160315 F51  0.1+  0.1+    160316 926  0.6-  0.2-    160316 K92  0.1-  0.0
    160315 F51  0.1-  0.1+    160316 926  0.2-  0.5+    160316 K92  0.1-  0.1-
    160316 691  0.6-  0.7-    160316 926  1.0-  0.2-    160316 K92  0.2-  0.4-
    160316 691  0.1-  0.4-    160316 926  0.5+  0.5+    160316 K92  0.1-  0.1-
    160316 691  0.1+  0.5-    160316 926  0.5-  0.3+    160316 K92  0.1-  0.3-
    160316 926  0.5-  0.2+    160316 568  0.2-  0.2+    160317 807  0.0   0.3-
    160316 926  0.3-  0.4-    160316 568  0.3-  0.2+    160317 807  0.3-  0.3-
    160316 926  0.5-  0.6-    160316 568  0.3-  0.2+    160317 807  0.2-  0.3-
    160316 G96  0.1-  0.1+    160316 568  0.2-  0.3+    160317 291  0.6+  0.4+
    160316 G96  0.1-  0.2+    160316 568  0.2-  0.3+    160317 291  0.5+  0.3+
    160316 G96  0.0   0.2+    160316 568  0.2-  0.3+    160317 291  0.6+  0.4+
    
    Ephemeris:
    2016 EF195               a,e,i = 2.26, 0.57, 2                   q = 0.9828
    Date    TT    R. A. (2000) Decl.     Delta      r     Elong.  Phase     V
    2016 02 16    03 53 56.3 +11 47 13   0.1063  0.9977    92.3    81.6    23.4
    ...
    2016 03 02    03 55 03.6 +11 54 32   0.04140 0.9831    77.7   100.0    22.1
    ...
    2016 03 10    03 45 51.3 +12 17 56   0.0054260.9911    67.6   112.1    18.4
    ...
    2016 03 16    14 42 26.8 -14 06 00   0.02192 1.0099   133.0    46.1    18.9
    2016 03 17    14 41 48.5 -14 05 54   0.02645 1.0136   134.2    44.8    19.3
    2016 03 18    14 41 16.9 -14 05 30   0.03098 1.0176   135.3    43.5    19.6
    ...
    2016 03 24    14 38 37.3 -13 59 11   0.05829 1.0435   141.9    36.1    20.8
    ...
    2016 04 01    14 34 20.9 -13 43 20   0.09558 1.0838   150.9    26.7    21.7
    ...
    2016 04 16    14 24 28.6 -13 03 43   0.1726  1.1730   168.1    10.2    22.6
    
    A. U. Tomatic                (C) Copyright 2016 MPC           M.P.E.C. 2016-F22
    

    Read MPEC 2016-F21 Read MPEC 2016-F23


    MPEC number:

    Enter an MPEC number in one of the following forms:

    • 1997-B01 (the full form)
    • J97B01 (the packed version of the full form)
    • B01 (the abbreviated form)